Palmdale, CA

2:42 PM PDT on August 20, 2017 (GMT -0700)
Palmdale Af Plant 42

Weather History for KPMD - April, 2011

Change the Weather History Date:

Wednesday, April 6, 2011

  Actual Average Record
Temperature  
Mean Temperature 64 °F 56 °F  
Max Temperature 74 °F 70 °F 96 °F (1989)
Min Temperature 53 °F 41 °F 27 °F (1955)
Degree Days  
Heating Degree Days 1 10  
Month to date heating degree days 24 61  
Since 1 July heating degree days 2691 2682  
Cooling Degree Days 0 0  
Month to date cooling degree days 1 0  
Year to date cooling degree days 2 2  
Growing Degree Days 12 (Base 50)    
Moisture  
Dew Point 37 °F    
Average Humidity 37    
Maximum Humidity 62    
Minimum Humidity 12    
Precipitation  
Precipitation 0.00 in 0.01 in 0.21 in (1958)
Month to date precipitation 0.00 0.10  
Year to date precipitation 2.33 4.61  
Since 1 July precipitation 7.71  
Snow  
Snow 0.00 in - 0.00 in (1973)
Month to date snowfall 0.0  
Since 1 July snowfall 0.0  
Snow Depth 0.00 in    
Sea Level Pressure  
Sea Level Pressure 29.90 in    
Wind  
Wind Speed 13 mph (West)    
Max Wind Speed 28 mph    
Max Gust Speed 32 mph    
Visibility 10 miles    
Events      
T = Trace of Precipitation, MM = Missing Value Source: NWS Daily Summary

Daily Weather History Graph

Daily Weather History Graph

Search for Another Location

Airport or City:

Trip Planner

Search our weather history database for the weather conditions in past years. The results will help you decide how hot, cold, wet, or windy it might be!

Date:

Astronomy

Apr. 06, 2011 Rise Set
Actual Time 6:32 AM PDT 7:17 PM PDT
Civil Twilight 6:07 AM PDT 7:42 PM PDT
Nautical Twilight 5:37 AM PDT 8:12 PM PDT
Astronomical Twilight 5:06 AM PDT 8:43 PM PDT
Moon 7:59 AM PDT (4/6) 10:32 PM PDT (4/6)
Length of Visible Light 13h 35m
Length of Day
12h 44m
Waxing Crescent, 9% of the Moon is Illuminated
Apr 6
Waxing Crescent
Apr 11
First Quarter
Apr 17
Full
Apr 24
Last Quarter
May 2
New

Hourly Weather History & Observations

Time (PDT) Temp. Dew Point Humidity Pressure Visibility Wind Dir Wind Speed Gust Speed Precip Events Conditions
12:53 AM 57.0 °F 25.0 °F 29% 29.86 in 10.0 mi WSW 11.5 mph - N/A   Clear
1:53 AM 62.1 °F 9.0 °F 12% 29.85 in 10.0 mi SW 17.3 mph - N/A   Clear
2:53 AM 57.0 °F 27.0 °F 32% 29.86 in 10.0 mi West 9.2 mph - N/A   Clear
3:53 AM 55.9 °F 36.0 °F 47% 29.85 in 10.0 mi WNW 9.2 mph - N/A   Clear
4:53 AM 55.9 °F 36.0 °F 47% 29.87 in 10.0 mi SW 12.7 mph - N/A   Clear
5:53 AM 53.1 °F 39.0 °F 59% 29.89 in 10.0 mi South 5.8 mph - N/A   Clear
6:53 AM 54.0 °F 39.9 °F 59% 29.91 in 10.0 mi NW 4.6 mph - N/A   Clear
7:53 AM 57.0 °F 39.9 °F 53% 29.93 in 10.0 mi WNW 8.1 mph - N/A   Clear
8:53 AM 57.9 °F 39.9 °F 51% 29.93 in 10.0 mi West 13.8 mph - N/A   Clear
9:53 AM 60.1 °F 43.0 °F 53% 29.95 in 10.0 mi WNW 15.0 mph - N/A   Clear
10:53 AM 64.9 °F 42.1 °F 43% 29.93 in 10.0 mi WNW 17.3 mph - N/A   Clear
11:53 AM 66.0 °F 41.0 °F 40% 29.92 in 10.0 mi NW 15.0 mph - N/A   Clear
12:53 PM 66.9 °F 41.0 °F 39% 29.91 in 10.0 mi WNW 11.5 mph - N/A   Clear
1:53 PM 70.0 °F 41.0 °F 35% 29.88 in 10.0 mi Variable 6.9 mph - N/A   Clear
2:53 PM 71.1 °F 39.0 °F 31% 29.86 in 10.0 mi WNW 9.2 mph 18.4 mph N/A   Clear
3:53 PM 72.0 °F 41.0 °F 33% 29.86 in 10.0 mi West 20.7 mph - N/A   Partly Cloudy
4:53 PM 69.1 °F 39.9 °F 35% 29.86 in 10.0 mi West 23.0 mph 31.1 mph N/A   Clear
5:53 PM 66.0 °F 39.9 °F 38% 29.88 in 10.0 mi WNW 24.2 mph 27.6 mph N/A   Clear
6:53 PM 63.0 °F 37.0 °F 38% 29.89 in 10.0 mi West 17.3 mph - N/A   Clear
7:53 PM 59.0 °F 45.0 °F 60% 29.90 in 10.0 mi SW 6.9 mph - N/A   Clear
8:53 PM 57.0 °F 44.1 °F 62% 29.91 in 10.0 mi SSW 11.5 mph - N/A   Clear
9:53 PM 55.0 °F 39.9 °F 57% 29.92 in 10.0 mi SSW 10.4 mph - N/A   Clear
10:53 PM 57.0 °F 35.1 °F 44% 29.91 in 10.0 mi WSW 13.8 mph 19.6 mph N/A   Clear
11:53 PM 57.0 °F 37.0 °F 47% 29.91 in 10.0 mi WSW 13.8 mph - N/A   Clear